Year,Month,Day,Hour,Minute,Value (Times are PST for temperature in C)
2009,07,04,00,00,16.90
2009,07,04,00,01,16.90
2009,07,04,00,02,16.90
2009,07,04,00,03,16.90
2009,07,04,00,04,16.90
2009,07,04,00,05,16.90
2009,07,04,00,06,16.80
2009,07,04,00,07,16.80
2009,07,04,00,08,16.80
2009,07,04,00,09,16.80
2009,07,04,00,10,16.80
2009,07,04,00,11,16.80
2009,07,04,00,12,16.80
2009,07,04,00,13,16.80
2009,07,04,00,14,16.70
2009,07,04,00,15,16.70
2009,07,04,00,16,16.70
2009,07,04,00,17,16.60
2009,07,04,00,18,16.60
2009,07,04,00,19,16.60
2009,07,04,00,20,16.50
2009,07,04,00,21,16.50
2009,07,04,00,22,16.40
2009,07,04,00,23,16.40
2009,07,04,00,24,16.40
2009,07,04,00,25,16.40
2009,07,04,00,26,16.40
2009,07,04,00,27,16.40
2009,07,04,00,28,16.40
2009,07,04,00,29,16.30
2009,07,04,00,30,16.30
2009,07,04,00,31,16.30
2009,07,04,00,32,16.30
2009,07,04,00,33,16.30
2009,07,04,00,34,16.30
2009,07,04,00,35,16.30
2009,07,04,00,36,16.30
2009,07,04,00,37,16.30
2009,07,04,00,38,16.20
2009,07,04,00,39,16.20
2009,07,04,00,40,16.20
2009,07,04,00,41,16.10
2009,07,04,00,42,16.10
2009,07,04,00,43,16.10
2009,07,04,00,44,16.10
2009,07,04,00,45,16.10
2009,07,04,00,46,16.10
2009,07,04,00,47,16.10
2009,07,04,00,48,16.10
2009,07,04,00,49,16.10
2009,07,04,00,50,16.10
2009,07,04,00,51,16.10
2009,07,04,00,52,16.10
2009,07,04,00,53,16.10
2009,07,04,00,54,16.10
2009,07,04,00,55,16.10
2009,07,04,00,56,16.10
2009,07,04,00,57,16.10
2009,07,04,00,58,16.10
2009,07,04,00,59,16.10
2009,07,04,01,00,16.10
2009,07,04,01,01,16.10
2009,07,04,01,02,16.10
2009,07,04,01,03,16.10
2009,07,04,01,04,16.00
2009,07,04,01,05,16.00
2009,07,04,01,06,16.00
2009,07,04,01,07,16.00
2009,07,04,01,08,16.00
2009,07,04,01,09,16.00
2009,07,04,01,10,16.00
2009,07,04,01,11,16.00
2009,07,04,01,12,16.00
2009,07,04,01,13,16.00
2009,07,04,01,14,16.00
2009,07,04,01,15,16.00
2009,07,04,01,16,15.90
2009,07,04,01,17,15.90
2009,07,04,01,18,15.90
2009,07,04,01,19,15.90
2009,07,04,01,20,15.90
2009,07,04,01,21,15.90
2009,07,04,01,22,16.00
2009,07,04,01,23,16.00
2009,07,04,01,24,16.10
2009,07,04,01,25,16.10
2009,07,04,01,26,16.10
2009,07,04,01,27,16.10
2009,07,04,01,28,16.10
2009,07,04,01,29,16.10
2009,07,04,01,30,16.10
2009,07,04,01,31,16.00
2009,07,04,01,32,16.00
2009,07,04,01,33,16.00
2009,07,04,01,34,16.00
2009,07,04,01,35,16.00
2009,07,04,01,36,16.00
2009,07,04,01,37,15.90
2009,07,04,01,38,15.90
2009,07,04,01,39,15.90
2009,07,04,01,40,15.90
2009,07,04,01,41,15.90
2009,07,04,01,42,15.90
2009,07,04,01,43,15.90
2009,07,04,01,44,16.00
2009,07,04,01,45,16.00
2009,07,04,01,46,16.10
2009,07,04,01,47,16.10
2009,07,04,01,48,16.20
2009,07,04,01,49,16.30
2009,07,04,01,50,16.30
2009,07,04,01,51,16.40
2009,07,04,01,52,16.40
2009,07,04,01,53,16.50
2009,07,04,01,54,16.50
2009,07,04,01,55,16.50
2009,07,04,01,56,16.60
2009,07,04,01,57,16.60
2009,07,04,01,58,16.60
2009,07,04,01,59,16.60
2009,07,04,02,00,16.60
2009,07,04,02,01,16.60
2009,07,04,02,02,16.60
2009,07,04,02,03,16.60
2009,07,04,02,04,16.50
2009,07,04,02,05,16.50
2009,07,04,02,06,16.50
2009,07,04,02,07,16.40
2009,07,04,02,08,16.40
2009,07,04,02,09,16.50
2009,07,04,02,10,16.50
2009,07,04,02,11,16.50
2009,07,04,02,12,16.50
2009,07,04,02,13,16.50
2009,07,04,02,14,16.50
2009,07,04,02,15,16.50
2009,07,04,02,16,16.50
2009,07,04,02,17,16.50
2009,07,04,02,18,16.60
2009,07,04,02,19,16.60
2009,07,04,02,20,16.70
2009,07,04,02,21,16.70
2009,07,04,02,22,16.80
2009,07,04,02,23,16.80
2009,07,04,02,24,16.80
2009,07,04,02,25,16.80
2009,07,04,02,26,16.80
2009,07,04,02,27,16.80
2009,07,04,02,28,16.90
2009,07,04,02,29,16.90
2009,07,04,02,30,17.00
2009,07,04,02,31,17.00
2009,07,04,02,32,17.00
2009,07,04,02,33,17.00
2009,07,04,02,34,17.00
2009,07,04,02,35,16.90
2009,07,04,02,36,16.90
2009,07,04,02,37,16.90
2009,07,04,02,38,16.90
2009,07,04,02,39,17.00
2009,07,04,02,40,17.00
2009,07,04,02,41,17.00
2009,07,04,02,42,17.00
2009,07,04,02,43,16.90
2009,07,04,02,44,16.90
2009,07,04,02,45,16.90
2009,07,04,02,46,16.90
2009,07,04,02,47,16.80
2009,07,04,02,48,16.80
2009,07,04,02,49,16.80
2009,07,04,02,50,16.80
2009,07,04,02,51,16.70
2009,07,04,02,52,16.70
2009,07,04,02,53,16.70
2009,07,04,02,54,16.70
2009,07,04,02,55,16.70
2009,07,04,02,56,16.70
2009,07,04,02,57,16.70
2009,07,04,02,58,16.70
2009,07,04,02,59,16.80
2009,07,04,03,00,16.80
2009,07,04,03,01,16.80
2009,07,04,03,02,16.80
2009,07,04,03,03,16.80
2009,07,04,03,04,16.80
2009,07,04,03,05,16.80
2009,07,04,03,06,16.80
2009,07,04,03,07,16.70
2009,07,04,03,08,16.70
2009,07,04,03,09,16.60
2009,07,04,03,10,16.50
2009,07,04,03,11,16.50
2009,07,04,03,12,16.40
2009,07,04,03,13,16.30
2009,07,04,03,14,16.30
2009,07,04,03,15,16.20
2009,07,04,03,16,16.20
2009,07,04,03,17,16.20
2009,07,04,03,18,16.10
2009,07,04,03,19,16.10
2009,07,04,03,20,16.00
2009,07,04,03,21,15.90
2009,07,04,03,22,15.90
2009,07,04,03,23,15.90
2009,07,04,03,24,15.90
2009,07,04,03,25,15.90
2009,07,04,03,26,15.80
2009,07,04,03,27,15.80
2009,07,04,03,28,15.80
2009,07,04,03,29,15.80
2009,07,04,03,30,15.80
2009,07,04,03,31,15.80
2009,07,04,03,32,15.70
2009,07,04,03,33,15.70
2009,07,04,03,34,15.70
2009,07,04,03,35,15.70
2009,07,04,03,36,15.70
2009,07,04,03,37,15.70
2009,07,04,03,38,15.70
2009,07,04,03,39,15.70
2009,07,04,03,40,15.70
2009,07,04,03,41,15.70
2009,07,04,03,42,15.60
2009,07,04,03,43,15.60
2009,07,04,03,44,15.50
2009,07,04,03,45,15.50
2009,07,04,03,46,15.50
2009,07,04,03,47,15.40
2009,07,04,03,48,15.40
2009,07,04,03,49,15.40
2009,07,04,03,50,15.40
2009,07,04,03,51,15.50
2009,07,04,03,52,15.60
2009,07,04,03,53,15.60
2009,07,04,03,54,15.60
2009,07,04,03,55,15.60
2009,07,04,03,56,15.60
2009,07,04,03,57,15.60
2009,07,04,03,58,15.60
2009,07,04,03,59,15.60
2009,07,04,04,00,15.50
2009,07,04,04,01,15.40
2009,07,04,04,02,15.40
2009,07,04,04,03,15.40
2009,07,04,04,04,15.40
2009,07,04,04,05,15.30
2009,07,04,04,06,15.30
2009,07,04,04,07,15.30
2009,07,04,04,08,15.30
2009,07,04,04,09,15.30
2009,07,04,04,10,15.30
2009,07,04,04,11,15.20
2009,07,04,04,12,15.20
2009,07,04,04,13,15.20
2009,07,04,04,14,15.20
2009,07,04,04,15,15.20
2009,07,04,04,16,15.20
2009,07,04,04,17,15.20
2009,07,04,04,18,15.20
2009,07,04,04,19,15.20
2009,07,04,04,20,15.20
2009,07,04,04,21,15.10
2009,07,04,04,22,15.00
2009,07,04,04,23,15.00
2009,07,04,04,24,15.00
2009,07,04,04,25,15.00
2009,07,04,04,26,15.00
2009,07,04,04,27,15.00
2009,07,04,04,28,15.00
2009,07,04,04,29,15.00
2009,07,04,04,30,15.00
2009,07,04,04,31,15.00
2009,07,04,04,32,15.00
2009,07,04,04,33,15.00
2009,07,04,04,34,15.00
2009,07,04,04,35,15.00
2009,07,04,04,36,15.00
2009,07,04,04,37,15.00
2009,07,04,04,38,15.00
2009,07,04,04,39,15.00
2009,07,04,04,40,15.00
2009,07,04,04,41,15.00
2009,07,04,04,42,15.00
2009,07,04,04,43,15.00
2009,07,04,04,44,15.00
2009,07,04,04,45,15.00
2009,07,04,04,46,15.00
2009,07,04,04,47,15.00
2009,07,04,04,48,15.00
2009,07,04,04,49,15.00
2009,07,04,04,50,14.90
2009,07,04,04,51,14.90
2009,07,04,04,52,14.90
2009,07,04,04,53,14.90
2009,07,04,04,54,14.90
2009,07,04,04,55,14.80
2009,07,04,04,56,14.80
2009,07,04,04,57,14.80
2009,07,04,04,58,14.80
2009,07,04,04,59,14.80
2009,07,04,05,00,14.90
2009,07,04,05,01,14.90
2009,07,04,05,02,15.00
2009,07,04,05,03,15.00
2009,07,04,05,04,15.00
2009,07,04,05,05,15.00
2009,07,04,05,06,15.00
2009,07,04,05,07,15.00
2009,07,04,05,08,15.00
2009,07,04,05,09,15.00
2009,07,04,05,10,15.00
2009,07,04,05,11,15.00
2009,07,04,05,12,15.00
2009,07,04,05,13,15.00
2009,07,04,05,14,14.90
2009,07,04,05,15,14.90
2009,07,04,05,16,14.80
2009,07,04,05,17,14.80
2009,07,04,05,18,14.80
2009,07,04,05,19,14.80
2009,07,04,05,20,14.80
2009,07,04,05,21,14.80
2009,07,04,05,22,14.80
2009,07,04,05,23,14.80
2009,07,04,05,24,14.70
2009,07,04,05,25,14.70
2009,07,04,05,26,14.70
2009,07,04,05,27,14.70
2009,07,04,05,28,14.70
2009,07,04,05,29,14.70
2009,07,04,05,30,14.70
2009,07,04,05,31,14.70
2009,07,04,05,32,14.70
2009,07,04,05,33,14.70
2009,07,04,05,34,14.70
2009,07,04,05,35,14.70
2009,07,04,05,36,14.70
2009,07,04,05,37,14.70
2009,07,04,05,38,14.70
2009,07,04,05,39,14.70
2009,07,04,05,40,14.80
2009,07,04,05,41,14.90
2009,07,04,05,42,15.00
2009,07,04,05,43,15.00
2009,07,04,05,44,15.20
2009,07,04,05,45,15.30
2009,07,04,05,46,15.40
2009,07,04,05,47,15.50
2009,07,04,05,48,15.60
2009,07,04,05,49,15.80
2009,07,04,05,50,15.90
2009,07,04,05,51,16.00
2009,07,04,05,52,16.10
2009,07,04,05,53,16.20
2009,07,04,05,54,16.30
2009,07,04,05,55,16.30
2009,07,04,05,56,16.40
2009,07,04,05,57,16.50
2009,07,04,05,58,16.60
2009,07,04,05,59,16.70
2009,07,04,06,00,16.80
2009,07,04,06,01,16.90
2009,07,04,06,02,17.00
2009,07,04,06,03,17.10
2009,07,04,06,04,17.10
2009,07,04,06,05,17.20
2009,07,04,06,06,17.20
2009,07,04,06,07,17.30
2009,07,04,06,08,17.30
2009,07,04,06,09,17.40
2009,07,04,06,10,17.40
2009,07,04,06,11,17.40
2009,07,04,06,12,17.50
2009,07,04,06,13,17.50
2009,07,04,06,14,17.60
2009,07,04,06,15,17.60
2009,07,04,06,16,17.60
2009,07,04,06,17,17.70
2009,07,04,06,18,17.70
2009,07,04,06,19,17.80
2009,07,04,06,20,17.80
2009,07,04,06,21,17.80
2009,07,04,06,22,17.90
2009,07,04,06,23,17.90
2009,07,04,06,24,18.00
2009,07,04,06,25,18.00
2009,07,04,06,26,18.10
2009,07,04,06,27,18.20
2009,07,04,06,28,18.20
2009,07,04,06,29,18.30
2009,07,04,06,30,18.30
2009,07,04,06,31,18.40
2009,07,04,06,32,18.40
2009,07,04,06,33,18.40
2009,07,04,06,34,18.40
2009,07,04,06,35,18.40
2009,07,04,06,36,18.50
2009,07,04,06,37,18.40
2009,07,04,06,38,18.50
2009,07,04,06,39,18.50
2009,07,04,06,40,18.50
2009,07,04,06,41,18.40
2009,07,04,06,42,18.40
2009,07,04,06,43,18.40
2009,07,04,06,44,18.40
2009,07,04,06,45,18.40
2009,07,04,06,46,18.40
2009,07,04,06,47,18.40
2009,07,04,06,48,18.40
2009,07,04,06,49,18.40
2009,07,04,06,50,18.40
2009,07,04,06,51,18.30
2009,07,04,06,52,18.30
2009,07,04,06,53,18.30
2009,07,04,06,54,18.30
2009,07,04,06,55,18.30
2009,07,04,06,56,18.30
2009,07,04,06,57,18.30
2009,07,04,06,58,18.30
2009,07,04,06,59,18.30
2009,07,04,07,00,18.30
2009,07,04,07,01,18.40
2009,07,04,07,02,18.40
2009,07,04,07,03,18.40
2009,07,04,07,04,18.40
2009,07,04,07,05,18.40
2009,07,04,07,06,18.40
2009,07,04,07,07,18.40
2009,07,04,07,08,18.40
2009,07,04,07,09,18.40
2009,07,04,07,10,18.50
2009,07,04,07,11,18.50
2009,07,04,07,12,18.50
2009,07,04,07,13,18.50
2009,07,04,07,14,18.50
2009,07,04,07,15,18.50
2009,07,04,07,16,18.50
2009,07,04,07,17,18.50
2009,07,04,07,18,18.50
2009,07,04,07,19,18.50
2009,07,04,07,20,18.50
2009,07,04,07,21,18.50
2009,07,04,07,22,18.60
2009,07,04,07,23,18.60
2009,07,04,07,24,18.60
2009,07,04,07,25,18.70
2009,07,04,07,26,18.70
2009,07,04,07,27,18.70
2009,07,04,07,28,18.80
2009,07,04,07,29,18.80
2009,07,04,07,30,18.90
2009,07,04,07,31,18.90
2009,07,04,07,32,19.00
2009,07,04,07,33,19.00
2009,07,04,07,34,19.10
2009,07,04,07,35,19.10
2009,07,04,07,36,19.10
2009,07,04,07,37,19.20
2009,07,04,07,38,19.20
2009,07,04,07,39,19.30
2009,07,04,07,40,19.30
2009,07,04,07,41,19.40
2009,07,04,07,42,19.40
2009,07,04,07,43,19.50
2009,07,04,07,44,19.50
2009,07,04,07,45,19.60
2009,07,04,07,46,19.60
2009,07,04,07,47,19.60
2009,07,04,07,48,19.70
2009,07,04,07,49,19.70
2009,07,04,07,50,19.70
2009,07,04,07,51,19.70
2009,07,04,07,52,19.80
2009,07,04,07,53,19.80
2009,07,04,07,54,19.70
2009,07,04,07,55,19.70
2009,07,04,07,56,19.70
2009,07,04,07,57,19.70
2009,07,04,07,58,19.80
2009,07,04,07,59,19.80
2009,07,04,08,00,19.80
2009,07,04,08,01,19.80
2009,07,04,08,02,19.80
2009,07,04,08,03,19.80
2009,07,04,08,04,19.80
2009,07,04,08,05,19.90
2009,07,04,08,06,19.90
2009,07,04,08,07,19.90
2009,07,04,08,08,19.90
2009,07,04,08,09,19.90
2009,07,04,08,10,19.90
2009,07,04,08,11,20.00
2009,07,04,08,12,20.00
2009,07,04,08,13,19.90
2009,07,04,08,14,19.90
2009,07,04,08,15,19.90
2009,07,04,08,16,19.80
2009,07,04,08,17,19.80
2009,07,04,08,18,19.80
2009,07,04,08,19,19.80
2009,07,04,08,20,19.80
2009,07,04,08,21,19.80
2009,07,04,08,22,19.80
2009,07,04,08,23,19.90
2009,07,04,08,24,19.90
2009,07,04,08,25,19.90
2009,07,04,08,26,19.90
2009,07,04,08,27,19.90
2009,07,04,08,28,19.90
2009,07,04,08,29,20.00
2009,07,04,08,30,20.00
2009,07,04,08,31,20.10
2009,07,04,08,32,20.10
2009,07,04,08,33,20.10
2009,07,04,08,34,20.20
2009,07,04,08,35,20.20
2009,07,04,08,36,20.30
2009,07,04,08,37,20.30
2009,07,04,08,38,20.30
2009,07,04,08,39,20.40
2009,07,04,08,40,20.40
2009,07,04,08,41,20.50
2009,07,04,08,42,20.60
2009,07,04,08,43,20.70
2009,07,04,08,44,20.70
2009,07,04,08,45,20.80
2009,07,04,08,46,20.80
2009,07,04,08,47,20.70
2009,07,04,08,48,20.70
2009,07,04,08,49,20.60
2009,07,04,08,50,20.60
2009,07,04,08,51,20.50
2009,07,04,08,52,20.50
2009,07,04,08,53,20.50
2009,07,04,08,54,20.50
2009,07,04,08,55,20.50
2009,07,04,08,56,20.40
2009,07,04,08,57,20.40
2009,07,04,08,58,20.40
2009,07,04,08,59,20.50
2009,07,04,09,00,20.50
2009,07,04,09,01,20.60
2009,07,04,09,02,20.70
2009,07,04,09,03,20.70
2009,07,04,09,04,20.80
2009,07,04,09,05,20.80
2009,07,04,09,06,20.80
2009,07,04,09,07,20.90
2009,07,04,09,08,20.90
2009,07,04,09,09,20.90
2009,07,04,09,10,21.00
2009,07,04,09,11,21.10
2009,07,04,09,12,21.10
2009,07,04,09,13,21.20
2009,07,04,09,14,21.20
2009,07,04,09,15,21.20
2009,07,04,09,16,21.30
2009,07,04,09,17,21.30
2009,07,04,09,18,21.30
2009,07,04,09,19,21.30
2009,07,04,09,20,21.30
2009,07,04,09,21,21.40
2009,07,04,09,22,21.30
2009,07,04,09,23,21.30
2009,07,04,09,24,21.30
2009,07,04,09,25,21.40
2009,07,04,09,26,21.40
2009,07,04,09,27,21.40
2009,07,04,09,28,21.30
2009,07,04,09,29,21.30
2009,07,04,09,30,21.20
2009,07,04,09,31,21.20
2009,07,04,09,32,21.20
2009,07,04,09,33,21.20
2009,07,04,09,34,21.20
2009,07,04,09,35,21.20
2009,07,04,09,36,21.20
2009,07,04,09,37,21.20
2009,07,04,09,38,21.20
2009,07,04,09,39,21.20
2009,07,04,09,40,21.30
2009,07,04,09,41,21.40
2009,07,04,09,42,21.50
2009,07,04,09,43,21.50
2009,07,04,09,44,21.40
2009,07,04,09,45,21.50
2009,07,04,09,46,21.50
2009,07,04,09,47,21.60
2009,07,04,09,48,21.70
2009,07,04,09,49,21.70
2009,07,04,09,50,21.70
2009,07,04,09,51,21.70
2009,07,04,09,52,21.70
2009,07,04,09,53,21.70
2009,07,04,09,54,21.70
2009,07,04,09,55,21.80
2009,07,04,09,56,21.80
2009,07,04,09,57,21.80
2009,07,04,09,58,21.90
2009,07,04,09,59,21.90
2009,07,04,10,00,22.00
2009,07,04,10,01,22.10
2009,07,04,10,02,22.10
2009,07,04,10,03,22.20
2009,07,04,10,04,22.30
2009,07,04,10,05,22.30
2009,07,04,10,06,22.40
2009,07,04,10,07,22.40
2009,07,04,10,08,22.50
2009,07,04,10,09,22.50
2009,07,04,10,10,22.50
2009,07,04,10,11,22.50
2009,07,04,10,12,22.50
2009,07,04,10,13,22.50
2009,07,04,10,14,22.50
2009,07,04,10,15,22.40
2009,07,04,10,16,22.40
2009,07,04,10,17,22.30
2009,07,04,10,18,22.30
2009,07,04,10,19,22.30
2009,07,04,10,20,22.30
2009,07,04,10,21,22.40
2009,07,04,10,22,22.40
2009,07,04,10,23,22.40
2009,07,04,10,24,22.40
2009,07,04,10,25,22.40
2009,07,04,10,26,22.40
2009,07,04,10,27,22.30
2009,07,04,10,28,22.30
2009,07,04,10,29,22.40
2009,07,04,10,30,22.50
2009,07,04,10,31,22.60
2009,07,04,10,32,22.70
2009,07,04,10,33,22.80
2009,07,04,10,34,22.90
2009,07,04,10,35,22.90
2009,07,04,10,36,22.80
2009,07,04,10,37,22.80
2009,07,04,10,38,22.70
2009,07,04,10,39,22.70
2009,07,04,10,40,22.70
2009,07,04,10,41,22.70
2009,07,04,10,42,22.60
2009,07,04,10,43,22.40
2009,07,04,10,44,22.30
2009,07,04,10,45,22.30
2009,07,04,10,46,22.20
2009,07,04,10,47,22.20
2009,07,04,10,48,22.20
2009,07,04,10,49,22.20
2009,07,04,10,50,22.10
2009,07,04,10,51,22.10
2009,07,04,10,52,22.10
2009,07,04,10,53,22.10
2009,07,04,10,54,22.10
2009,07,04,10,55,22.00
2009,07,04,10,56,22.00
2009,07,04,10,57,22.00
2009,07,04,10,58,22.00
2009,07,04,10,59,22.00
2009,07,04,11,00,22.20
2009,07,04,11,01,22.20
2009,07,04,11,02,22.30
2009,07,04,11,03,22.30
2009,07,04,11,04,22.30
2009,07,04,11,05,22.30
2009,07,04,11,06,22.40
2009,07,04,11,07,22.50
2009,07,04,11,08,22.60
2009,07,04,11,09,22.60
2009,07,04,11,10,22.60
2009,07,04,11,11,22.50
2009,07,04,11,12,22.50
2009,07,04,11,13,22.40
2009,07,04,11,14,22.30
2009,07,04,11,15,22.30
2009,07,04,11,16,22.30
2009,07,04,11,17,22.20
2009,07,04,11,18,22.20
2009,07,04,11,19,22.20
2009,07,04,11,20,22.20
2009,07,04,11,21,22.20
2009,07,04,11,22,22.30
2009,07,04,11,23,22.30
2009,07,04,11,24,22.30
2009,07,04,11,25,22.20
2009,07,04,11,26,22.20
2009,07,04,11,27,22.20
2009,07,04,11,28,22.30
2009,07,04,11,29,22.40
2009,07,04,11,30,22.40
2009,07,04,11,31,22.40
2009,07,04,11,32,22.40
2009,07,04,11,33,22.50
2009,07,04,11,34,22.50
2009,07,04,11,35,22.60
2009,07,04,11,36,22.70
2009,07,04,11,37,22.70
2009,07,04,11,38,22.80
2009,07,04,11,39,22.90
2009,07,04,11,40,23.00
2009,07,04,11,41,23.00
2009,07,04,11,42,23.10
2009,07,04,11,43,23.20
2009,07,04,11,44,23.20
2009,07,04,11,45,23.20
2009,07,04,11,46,23.10
2009,07,04,11,47,23.00
2009,07,04,11,48,23.00
2009,07,04,11,49,23.00
2009,07,04,11,50,23.00
2009,07,04,11,51,22.90
2009,07,04,11,52,22.80
2009,07,04,11,53,22.70
2009,07,04,11,54,22.70
2009,07,04,11,55,22.70
2009,07,04,11,56,22.90
2009,07,04,11,57,23.00
2009,07,04,11,58,23.10
2009,07,04,11,59,23.10
2009,07,04,12,00,23.10
2009,07,04,12,01,23.10
2009,07,04,12,02,23.10
2009,07,04,12,03,23.10
2009,07,04,12,04,23.00
2009,07,04,12,05,22.80
2009,07,04,12,06,22.60
2009,07,04,12,07,22.60
2009,07,04,12,08,22.60
2009,07,04,12,09,22.60
2009,07,04,12,10,22.60
2009,07,04,12,11,22.60
2009,07,04,12,12,22.60
2009,07,04,12,13,22.50
2009,07,04,12,14,22.50
2009,07,04,12,15,22.50
2009,07,04,12,16,22.50
2009,07,04,12,17,22.70
2009,07,04,12,18,22.80
2009,07,04,12,19,22.90
2009,07,04,12,20,22.90
2009,07,04,12,21,22.90
2009,07,04,12,22,22.90
2009,07,04,12,23,22.90
2009,07,04,12,24,22.90
2009,07,04,12,25,23.00
2009,07,04,12,26,22.90
2009,07,04,12,27,22.90
2009,07,04,12,28,22.80
2009,07,04,12,29,22.90
2009,07,04,12,30,22.90
2009,07,04,12,31,22.90
2009,07,04,12,32,22.90
2009,07,04,12,33,22.90
2009,07,04,12,34,22.90
2009,07,04,12,35,22.90
2009,07,04,12,36,22.80
2009,07,04,12,37,22.90
2009,07,04,12,38,22.90
2009,07,04,12,39,22.90
2009,07,04,12,40,22.90
2009,07,04,12,41,23.00
2009,07,04,12,42,23.00
2009,07,04,12,43,23.10
2009,07,04,12,44,23.20
2009,07,04,12,45,23.20
2009,07,04,12,46,23.20
2009,07,04,12,47,23.30
2009,07,04,12,48,23.20
2009,07,04,12,49,23.20
2009,07,04,12,50,23.30
2009,07,04,12,51,23.30
2009,07,04,12,52,23.40
2009,07,04,12,53,23.40
2009,07,04,12,54,23.30
2009,07,04,12,55,23.40
2009,07,04,12,56,23.50
2009,07,04,12,57,23.60
2009,07,04,12,58,23.70
2009,07,04,12,59,23.70
2009,07,04,13,00,23.70
2009,07,04,13,01,23.80
2009,07,04,13,02,23.60
2009,07,04,13,03,23.50
2009,07,04,13,04,23.40
2009,07,04,13,05,23.40
2009,07,04,13,06,23.30
2009,07,04,13,07,23.20
2009,07,04,13,08,23.10
2009,07,04,13,09,23.00
2009,07,04,13,10,23.00
2009,07,04,13,11,23.10
2009,07,04,13,12,23.20
2009,07,04,13,13,23.10
2009,07,04,13,14,23.10
2009,07,04,13,15,23.10
2009,07,04,13,16,23.20
2009,07,04,13,17,23.30
2009,07,04,13,18,23.40
2009,07,04,13,19,23.50
2009,07,04,13,20,23.60
2009,07,04,13,21,23.70
2009,07,04,13,22,23.90
2009,07,04,13,23,23.90
2009,07,04,13,24,24.00
2009,07,04,13,25,24.00
2009,07,04,13,26,24.10
2009,07,04,13,27,24.00
2009,07,04,13,28,24.10
2009,07,04,13,29,24.00
2009,07,04,13,30,24.00
2009,07,04,13,31,24.00
2009,07,04,13,32,23.90
2009,07,04,13,33,23.80
2009,07,04,13,34,23.80
2009,07,04,13,35,23.70
2009,07,04,13,36,23.70
2009,07,04,13,37,23.80
2009,07,04,13,38,23.80
2009,07,04,13,39,23.80
2009,07,04,13,40,23.90
2009,07,04,13,41,23.90
2009,07,04,13,42,23.90
2009,07,04,13,43,23.90
2009,07,04,13,44,24.00
2009,07,04,13,45,24.00
2009,07,04,13,46,24.00
2009,07,04,13,47,23.80
2009,07,04,13,48,23.80
2009,07,04,13,49,23.80
2009,07,04,13,50,23.90
2009,07,04,13,51,23.90
2009,07,04,13,52,24.00
2009,07,04,13,53,24.10
2009,07,04,13,54,24.10
2009,07,04,13,55,24.10
2009,07,04,13,56,24.10
2009,07,04,13,57,24.10
2009,07,04,13,58,24.10
2009,07,04,13,59,24.10
2009,07,04,14,00,24.20
2009,07,04,14,01,24.30
2009,07,04,14,02,24.40
2009,07,04,14,03,24.50
2009,07,04,14,04,24.60
2009,07,04,14,05,24.70
2009,07,04,14,06,24.80
2009,07,04,14,07,24.80
2009,07,04,14,08,24.70
2009,07,04,14,09,24.70
2009,07,04,14,10,24.60
2009,07,04,14,11,24.50
2009,07,04,14,12,24.40
2009,07,04,14,13,24.50
2009,07,04,14,14,24.50
2009,07,04,14,15,24.60
2009,07,04,14,16,24.50
2009,07,04,14,17,24.50
2009,07,04,14,18,24.40
2009,07,04,14,19,24.40
2009,07,04,14,20,24.40
2009,07,04,14,21,24.30
2009,07,04,14,22,24.30
2009,07,04,14,23,24.20
2009,07,04,14,24,24.20
2009,07,04,14,25,24.30
2009,07,04,14,26,24.30
2009,07,04,14,27,24.30
2009,07,04,14,28,24.40
2009,07,04,14,29,24.40
2009,07,04,14,30,24.30
2009,07,04,14,31,24.40
2009,07,04,14,32,24.50
2009,07,04,14,33,24.60
2009,07,04,14,34,24.70
2009,07,04,14,35,24.70
2009,07,04,14,36,24.80
2009,07,04,14,37,24.80
2009,07,04,14,38,24.80
2009,07,04,14,39,24.80
2009,07,04,14,40,24.80
2009,07,04,14,41,25.00
2009,07,04,14,42,25.10
2009,07,04,14,43,25.10
2009,07,04,14,44,25.10
2009,07,04,14,45,25.20
2009,07,04,14,46,25.10
2009,07,04,14,47,25.10
2009,07,04,14,48,25.00
2009,07,04,14,49,25.00
2009,07,04,14,50,25.00
2009,07,04,14,51,24.90
2009,07,04,14,52,24.80
2009,07,04,14,53,24.80
2009,07,04,14,54,24.80
2009,07,04,14,55,24.80
2009,07,04,14,56,24.80
2009,07,04,14,57,24.80
2009,07,04,14,58,24.80
2009,07,04,14,59,24.80
2009,07,04,15,00,24.80
2009,07,04,15,01,24.80
2009,07,04,15,02,24.80
2009,07,04,15,03,24.80
2009,07,04,15,04,24.80
2009,07,04,15,05,24.90
2009,07,04,15,06,25.00
2009,07,04,15,07,25.00
2009,07,04,15,08,25.00
2009,07,04,15,09,25.00
2009,07,04,15,10,25.00
2009,07,04,15,11,25.10
2009,07,04,15,12,25.30
2009,07,04,15,13,25.40
2009,07,04,15,14,25.40
2009,07,04,15,15,25.40
2009,07,04,15,16,25.40
2009,07,04,15,17,25.40
2009,07,04,15,18,25.50
2009,07,04,15,19,25.50
2009,07,04,15,20,25.50
2009,07,04,15,21,25.50
2009,07,04,15,22,25.50
2009,07,04,15,23,25.50
2009,07,04,15,24,25.40
2009,07,04,15,25,25.40
2009,07,04,15,26,25.40
2009,07,04,15,27,25.30
2009,07,04,15,28,25.30
2009,07,04,15,29,25.30
2009,07,04,15,30,25.30
2009,07,04,15,31,25.20
2009,07,04,15,32,25.20
2009,07,04,15,33,25.30
2009,07,04,15,34,25.40
2009,07,04,15,35,25.50
2009,07,04,15,36,25.60
2009,07,04,15,37,25.70
2009,07,04,15,38,25.90
2009,07,04,15,39,26.10
2009,07,04,15,40,26.10
2009,07,04,15,41,26.10
2009,07,04,15,42,26.00
2009,07,04,15,43,26.10
2009,07,04,15,44,26.20
2009,07,04,15,45,26.30
2009,07,04,15,46,26.40
2009,07,04,15,47,26.40
2009,07,04,15,48,26.40
2009,07,04,15,49,26.40
2009,07,04,15,50,26.50
2009,07,04,15,51,26.50
2009,07,04,15,52,26.50
2009,07,04,15,53,26.60
2009,07,04,15,54,26.70
2009,07,04,15,55,26.70
2009,07,04,15,56,26.70
2009,07,04,15,57,26.70
2009,07,04,15,58,26.60
2009,07,04,15,59,26.60
2009,07,04,16,00,26.60
2009,07,04,16,01,26.50
2009,07,04,16,02,26.40
2009,07,04,16,03,26.20
2009,07,04,16,04,26.10
2009,07,04,16,05,26.20
2009,07,04,16,06,26.30
2009,07,04,16,07,26.40
2009,07,04,16,08,26.50
2009,07,04,16,09,26.60
2009,07,04,16,10,26.60
2009,07,04,16,11,26.60
2009,07,04,16,12,26.60
2009,07,04,16,13,26.60
2009,07,04,16,14,26.60
2009,07,04,16,15,26.70
2009,07,04,16,16,26.70
2009,07,04,16,17,26.70
2009,07,04,16,18,26.60
2009,07,04,16,19,26.60
2009,07,04,16,20,26.60
2009,07,04,16,21,26.70
2009,07,04,16,22,26.80
2009,07,04,16,23,26.80
2009,07,04,16,24,26.80
2009,07,04,16,25,26.70
2009,07,04,16,26,26.80
2009,07,04,16,27,26.80
2009,07,04,16,28,26.80
2009,07,04,16,29,26.80
2009,07,04,16,30,26.80
2009,07,04,16,31,26.70
2009,07,04,16,32,26.70
2009,07,04,16,33,26.80
2009,07,04,16,34,26.80
2009,07,04,16,35,26.80
2009,07,04,16,36,26.90
2009,07,04,16,37,26.90
2009,07,04,16,38,27.00
2009,07,04,16,39,27.00
2009,07,04,16,40,27.00
2009,07,04,16,41,26.90
2009,07,04,16,42,26.90
2009,07,04,16,43,26.90
2009,07,04,16,44,26.80
2009,07,04,16,45,26.80
2009,07,04,16,46,26.70
2009,07,04,16,47,26.70
2009,07,04,16,48,26.70
2009,07,04,16,49,26.60
2009,07,04,16,50,26.60
2009,07,04,16,51,26.60
2009,07,04,16,52,26.60
2009,07,04,16,53,26.70
2009,07,04,16,54,26.80
2009,07,04,16,55,26.80
2009,07,04,16,56,26.70
2009,07,04,16,57,26.70
2009,07,04,16,58,26.80
2009,07,04,16,59,26.80
2009,07,04,17,00,26.70
2009,07,04,17,01,26.70
2009,07,04,17,02,26.70
2009,07,04,17,03,26.70
2009,07,04,17,04,26.60
2009,07,04,17,05,26.60
2009,07,04,17,06,26.60
2009,07,04,17,07,26.60
2009,07,04,17,08,26.60
2009,07,04,17,09,26.60
2009,07,04,17,10,26.60
2009,07,04,17,11,26.60
2009,07,04,17,12,26.70
2009,07,04,17,13,26.70
2009,07,04,17,14,26.80
2009,07,04,17,15,26.80
2009,07,04,17,16,26.80
2009,07,04,17,17,26.90
2009,07,04,17,18,26.90
2009,07,04,17,19,26.90